Wind_Speed
10 10 9 8 7 7 8 8 8 7 7 6 6 7 7 8 7 7 7 7 7 7 6 6 5 5 5 5 5 5 5 5 5 5 6 6 7 7 8 8 9 9 10
9 10 9 9 8 8 8 8 8 8 8 8 8 8 8 8 8 8 8 8 8 7 7 6 6 6 6 5 5 6 5 5 5 5 6 6 7 7 8 9 9 10 11
9 9 9 9 8 8 8 8 8 9 9 9 9 9 9 9 9 9 9 9 8 8 7 7 6 6 6 6 6 6 5 5 5 6 7 7 7 8 8 9 10 11 11
10 9 9 8 8 8 8 8 9 9 9 9 9 9 9 9 9 10 10 10 9 9 8 8 8 7 7 6 6 6 6 6 7 7 7 7 8 9 10 10 11 11 12
11 10 9 8 8 8 8 8 8 9 10 9 9 9 9 9 9 10 10 10 10 10 9 9 9 8 8 8 7 7 7 8 8 8 8 9 10 11 11 11 12 12 12
11 11 10 9 9 9 9 9 9 9 10 10 10 9 9 9 10 10 10 10 10 10 10 10 10 9 9 9 9 8 9 9 9 9 10 11 12 12 12 12 12 13 13
12 12 12 11 11 10 10 10 10 10 10 11 11 10 9 9 10 10 11 11 11 11 11 10 10 10 9 10 10 10 10 11 11 11 12 12 13 13 13 13 14 14 15
13 13 13 12 12 12 11 11 10 11 11 11 11 11 11 10 10 10 11 11 12 12 12 11 11 10 10 10 10 11 11 12 12 12 12 13 13 14 14 15 15 16 16
14 14 14 13 13 13 12 12 11 11 12 12 11 12 12 11 11 11 11 12 12 13 12 12 11 11 11 12 12 12 12 12 13 13 14 14 15 15 16 16 17 17 17
15 15 15 15 15 14 13 13 12 12 12 13 13 12 13 13 13 12 12 13 14 13 14 14 13 13 13 12 13 13 14 14 14 14 15 15 15 16 16 17 18 18 18
16 15 15 16 15 15 14 14 14 13 13 14 14 14 14 14 14 14 14 14 15 15 15 15 15 15 15 15 15 15 15 16 16 16 17 17 17 17 18 18 19 20 20
17 16 16 16 16 16 15 15 15 15 15 15 15 16 16 16 16 16 16 15 15 15 16 16 17 17 17 17 17 17 17 18 18 18 18 18 19 19 20 20 20 21 21
19 18 18 17 17 17 17 17 16 16 16 16 16 16 17 17 17 17 17 17 17 17 17 17 17 18 18 18 18 19 19 19 19 20 19 20 20 20 21 21 21 21 22
21 20 19 19 19 19 18 18 18 18 17 17 17 18 19 19 19 18 18 19 18 18 19 19 19 19 19 20 20 19 19 20 20 20 20 21 22 21 21 21 22 22 23
22 21 20 20 20 20 20 20 19 19 18 18 18 18 18 19 19 19 19 20 20 20 21 21 21 21 21 21 21 21 21 21 21 21 21 22 21 21 22 22 22 23 23
23 23 22 21 21 21 21 21 20 20 19 18 18 18 18 19 19 19 19 20 20 20 21 21 22 22 23 23 23 23 23 23 23 23 23 22 22 22 23 23 23 24 25
24 23 23 22 21 22 22 21 21 20 20 19 19 19 19 19 18 19 19 20 21 21 21 22 23 23 24 25 25 25 25 24 24 24 25 25 25 25 25 25 26 26 27
25 25 24 23 23 22 23 22 21 21 21 20 20 20 20 20 19 19 19 20 20 20 21 21 22 23 24 25 25 25 25 25 25 25 25 26 26 26 27 27 28 29 29
27 26 26 25 24 24 23 23 22 22 22 22 21 21 21 21 20 21 20 20 20 21 22 22 23 24 24 25 25 26 26 26 25 25 26 27 27 27 28 29 30 31 31
29 28 27 27 26 25 24 24 23 23 23 23 22 22 22 22 21 22 21 21 21 22 22 22 23 24 25 25 25 26 26 26 26 27 27 27 28 29 29 30 31 31 31
30 29 28 28 27 26 25 25 25 24 24 23 23 23 23 23 23 23 23 22 22 23 23 23 24 24 25 25 25 26 26 27 27 28 28 28 29 29 30 31 31 31 31
30 30 29 29 28 28 27 26 26 25 25 25 24 24 24 24 24 23 23 23 23 23 24 24 25 25 25 25 26 26 27 28 28 29 29 30 30 30 31 32 32 33 33
31 31 30 30 29 29 28 28 27 26 26 25 25 25 24 24 24 24 24 24 24 24 24 24 25 26 25 25 26 27 27 28 29 30 30 31 32 32 33 33 34 34 34
31 31 31 30 30 30 30 30 29 28 27 27 26 25 24 25 25 25 25 25 25 25 25 26 26 26 27 27 28 28 28 29 29 30 30 31 32 33 33 34 34 35 35
31 31 31 31 31 31 30 30 29 28 28 27 26 26 26 26 26 27 27 27 27 28 28 28 28 28 28 29 29 30 30 31 31 32 32 32 33 33 34 34 35 36 37
31 32 32 32 32 31 31 30 30 30 30 29 29 28 28 27 28 28 28 29 29 29 30 30 30 30 30 30 31 32 32 33 33 33 33 33 34 35 35 36 37 37 38
Wind_Direction
262 261 262 263 263 263 259 253 247 240 234 231 235 235 230 225 229 233 233 233 238 242 244 240 242 248 257 260 262 267 274 279 286 291 297 303 309 313 319 321 317 316 317
260 256 256 259 258 257 254 250 241 235 233 234 237 237 233 231 232 232 234 237 237 237 240 238 240 246 253 260 263 266 269 273 283 291 298 305 312 316 318 321 320 319 318
255 252 254 255 254 252 248 245 243 238 235 237 237 236 233 236 235 236 238 239 238 237 238 239 243 248 254 261 264 267 266 272 283 289 292 299 306 310 315 319 321 322 322
254 252 249 248 249 249 248 246 243 236 234 236 235 234 236 237 237 238 238 241 239 235 238 242 246 250 255 262 266 266 269 275 282 288 294 299 305 308 312 316 320 320 317
252 251 243 240 244 247 247 246 239 234 233 232 232 233 234 237 238 238 238 239 239 236 239 246 249 253 257 259 262 267 272 277 283 287 293 300 305 307 309 310 313 313 313
252 248 241 240 243 246 246 247 243 238 234 231 232 233 235 237 238 238 239 240 239 235 239 248 250 253 255 258 263 266 272 277 281 286 293 299 302 305 306 309 311 311 310
253 248 242 240 244 246 247 246 245 242 237 232 231 232 234 237 241 242 242 242 238 235 241 249 254 256 258 259 263 265 271 276 281 286 293 297 299 302 305 309 310 310 309
250 247 243 242 245 246 247 244 246 244 238 230 231 233 236 239 242 246 245 246 240 239 244 250 255 255 261 265 267 270 273 277 282 288 294 298 299 299 302 306 308 308 307
246 244 244 243 244 245 245 244 245 245 242 233 232 236 237 240 242 244 246 246 244 242 246 250 254 258 262 265 268 270 272 275 280 286 291 295 296 298 300 303 306 307 308
247 245 243 242 243 244 243 242 243 244 243 236 237 238 241 244 245 246 248 249 247 245 248 251 255 259 261 266 270 271 273 275 280 285 288 292 296 298 301 303 304 304 306
246 245 243 242 242 243 243 243 243 244 244 242 242 243 244 247 250 252 254 254 251 250 251 253 256 260 263 267 270 273 276 276 280 284 286 289 292 296 299 301 303 303 303
243 243 242 241 242 242 243 244 245 246 246 246 246 246 246 249 251 254 255 256 254 253 254 256 258 261 264 267 270 273 277 280 280 281 283 286 290 292 295 298 300 302 303
242 242 243 243 243 243 244 246 247 247 249 248 248 247 247 248 251 253 253 256 257 256 257 258 259 262 266 269 271 273 276 279 278 278 281 284 287 290 294 297 299 300 302
242 242 243 244 245 245 244 246 246 247 250 251 251 251 250 250 251 253 255 256 258 258 259 260 260 261 264 267 270 273 275 278 279 280 282 285 287 290 292 295 296 297 300
242 241 242 243 244 244 244 245 246 246 248 249 250 251 252 250 250 253 254 256 258 259 259 259 261 263 265 268 271 274 276 279 281 282 283 286 288 290 291 294 295 296 298
241 241 241 242 243 244 244 243 244 245 247 248 249 250 252 254 253 253 256 260 262 264 263 262 263 265 267 269 271 274 276 278 280 281 283 285 288 290 292 293 294 295 297
237 239 241 242 243 244 244 244 243 243 246 248 251 252 254 255 255 255 257 261 263 266 267 266 265 266 268 269 271 274 276 277 279 282 284 285 286 289 290 292 293 295 297
235 237 239 241 242 244 244 242 241 244 247 249 252 254 256 257 258 259 261 263 264 266 267 269 270 270 270 270 271 272 274 276 278 281 283 284 286 287 289 291 292 294 295
237 236 237 239 241 242 243 243 242 245 248 250 252 253 256 258 259 260 262 265 267 267 267 268 270 271 271 271 271 273 274 275 277 279 281 283 285 287 288 289 291 292 294
238 238 238 239 241 242 243 244 245 247 249 250 253 256 257 257 258 259 261 265 267 267 267 268 269 271 273 273 272 273 274 274 276 279 281 283 285 286 288 290 291 292 293
237 237 238 239 240 241 243 244 246 247 248 251 254 256 258 258 258 260 262 264 266 268 269 270 271 274 275 276 276 276 276 277 279 281 282 283 285 286 288 291 292 292 293
236 237 238 239 240 241 241 243 245 247 248 252 255 257 259 260 260 260 263 266 267 269 271 273 273 274 275 277 278 278 279 280 282 284 285 285 285 286 288 291 292 293 293
236 236 238 239 240 241 241 243 245 248 250 253 256 258 260 261 261 261 264 266 268 270 273 275 276 277 277 278 280 281 281 282 283 284 286 286 286 287 289 291 292 292 294
237 237 238 239 241 243 243 244 245 248 251 254 257 258 260 262 263 263 265 267 270 272 274 275 276 277 276 278 280 281 282 283 285 286 287 288 288 290 291 292 293 293 293
237 238 239 240 242 243 243 244 246 249 251 254 256 258 260 261 264 266 267 269 271 273 275 276 277 277 276 277 279 280 281 283 285 287 288 288 289 290 291 292 293 294 294
237 238 239 241 242 243 243 244 247 250 252 254 256 259 261 263 265 267 269 270 272 273 274 276 277 276 276 278 279 280 281 283 284 286 288 289 289 290 292 293 293 294 294
Height
5826 5826 5826 5826 5826 5826 5826 5826 5826 5827 5827 5828 5828 5829 5829 5830 5831 5832 5833 5834 5834 5835 5835 5835 5836 5836 5836 5836 5836 5836 5836 5836 5835 5835 5834 5833 5832 5831 5829 5828 5827 5825 5824
5823 5823 5823 5823 5823 5823 5823 5824 5824 5825 5825 5826 5827 5827 5828 5829 5829 5830 5831 5832 5832 5833 5833 5834 5834 5834 5835 5835 5835 5834 5834 5834 5834 5833 5832 5832 5830 5829 5828 5827 5825 5823 5822
5820 5820 5820 5820 5821 5821 5821 5821 5822 5822 5823 5824 5825 5825 5826 5827 5827 5828 5829 5830 5830 5831 5831 5832 5832 5833 5833 5833 5833 5833 5833 5832 5832 5832 5831 5830 5829 5828 5827 5825 5823 5821 5820
5817 5818 5818 5818 5818 5819 5819 5819 5819 5820 5821 5821 5822 5823 5824 5825 5825 5826 5827 5828 5828 5829 5830 5830 5831 5831 5831 5831 5831 5831 5831 5831 5830 5830 5829 5828 5827 5826 5825 5823 5821 5819 5817
5814 5814 5815 5815 5816 5816 5816 5817 5817 5818 5818 5819 5820 5821 5822 5822 5823 5824 5824 5825 5826 5827 5827 5828 5829 5829 5829 5829 5830 5829 5829 5829 5828 5827 5827 5826 5825 5823 5822 5821 5819 5817 5815
5811 5811 5812 5813 5813 5814 5814 5814 5815 5815 5816 5817 5818 5819 5819 5820 5821 5821 5822 5823 5824 5824 5825 5826 5826 5827 5827 5827 5827 5827 5827 5826 5826 5825 5824 5823 5822 5821 5819 5818 5816 5814 5812
5807 5808 5809 5809 5810 5811 5811 5811 5812 5812 5813 5814 5815 5816 5817 5818 5818 5819 5820 5820 5821 5822 5822 5823 5823 5824 5824 5824 5824 5824 5824 5823 5823 5822 5821 5820 5819 5817 5816 5814 5813 5811 5809
5804 5804 5805 5806 5806 5807 5808 5808 5809 5809 5810 5811 5812 5813 5814 5815 5816 5816 5817 5818 5818 5819 5820 5820 5821 5821 5821 5821 5821 5821 5821 5820 5820 5819 5818 5817 5815 5814 5812 5811 5809 5807 5805
5799 5800 5801 5802 5803 5804 5804 5805 5806 5806 5807 5808 5809 5810 5811 5812 5813 5814 5814 5815 5815 5816 5817 5817 5818 5818 5818 5818 5818 5818 5817 5817 5816 5815 5814 5813 5812 5810 5808 5807 5805 5803 5801
5795 5796 5797 5798 5799 5800 5801 5802 5802 5803 5804 5805 5806 5807 5808 5809 5810 5810 5811 5812 5812 5813 5813 5814 5814 5814 5814 5814 5814 5814 5813 5813 5812 5811 5810 5809 5807 5806 5804 5802 5800 5798 5796
5790 5791 5792 5793 5795 5796 5797 5798 5799 5800 5800 5801 5802 5803 5805 5805 5806 5807 5807 5808 5809 5809 5810 5810 5810 5810 5810 5810 5810 5809 5809 5808 5807 5806 5805 5804 5803 5801 5799 5798 5796 5793 5791
5785 5786 5787 5789 5790 5791 5792 5793 5795 5796 5797 5798 5798 5799 5800 5801 5802 5803 5803 5804 5804 5805 5805 5805 5806 5806 5805 5805 5805 5805 5804 5803 5802 5801 5800 5799 5798 5796 5794 5792 5790 5788 5786
5779 5781 5782 5784 5785 5786 5788 5789 5790 5791 5792 5793 5794 5795 5796 5797 5797 5798 5798 5799 5800 5800 5800 5800 5801 5800 5800 5800 5800 5799 5799 5798 5797 5796 5795 5794 5792 5791 5789 5787 5785 5783 5780
5773 5775 5777 5778 5780 5781 5783 5784 5785 5786 5787 5788 5789 5790 5790 5791 5792 5793 5793 5794 5794 5795 5795 5795 5795 5795 5795 5795 5794 5794 5793 5792 5791 5790 5789 5788 5786 5785 5783 5781 5779 5777 5774
5766 5768 5770 5772 5774 5776 5777 5778 5780 5781 5782 5783 5784 5784 5785 5786 5787 5787 5788 5788 5789 5789 5789 5789 5789 5789 5789 5789 5788 5788 5787 5786 5785 5784 5783 5781 5780 5778 5777 5775 5773 5770 5768
5760 5762 5764 5766 5768 5770 5771 5772 5773 5775 5776 5777 5778 5779 5779 5780 5781 5781 5782 5782 5782 5783 5783 5783 5783 5783 5783 5782 5782 5781 5781 5780 5779 5778 5776 5775 5773 5772 5770 5768 5766 5763 5761
5752 5755 5757 5759 5761 5763 5765 5766 5767 5769 5770 5771 5772 5773 5774 5774 5775 5776 5776 5776 5776 5776 5776 5776 5776 5776 5776 5775 5775 5774 5774 5773 5772 5770 5769 5768 5766 5765 5763 5761 5759 5756 5753
5745 5748 5750 5752 5755 5756 5758 5759 5761 5762 5764 5765 5766 5767 5768 5768 5769 5769 5770 5770 5770 5770 5769 5769 5769 5769 5768 5768 5767 5767 5766 5765 5764 5763 5762 5760 5758 5757 5755 5753 5751 5748 5745
5737 5740 5743 5745 5747 5749 5751 5753 5755 5756 5758 5759 5760 5761 5761 5762 5762 5763 5763 5763 5763 5763 5762 5762 5762 5761 5761 5760 5760 5759 5758 5758 5757 5755 5754 5752 5750 5749 5747 5745 5742 5740 5736
5729 5732 5735 5738 5740 5742 5744 5746 5748 5749 5751 5752 5753 5754 5754 5755 5756 5756 5756 5756 5756 5755 5755 5755 5754 5754 5753 5752 5752 5751 5750 5749 5748 5747 5746 5744 5742 5740 5738 5736 5733 5730 5727
5721 5724 5727 5729 5732 5735 5737 5739 5740 5742 5743 5745 5746 5747 5747 5748 5748 5749 5749 5749 5749 5748 5748 5747 5747 5746 5745 5744 5744 5743 5742 5741 5740 5738 5737 5735 5733 5731 5729 5726 5724 5721 5717
5712 5716 5719 5721 5724 5727 5729 5731 5733 5734 5736 5737 5738 5739 5739 5740 5741 5741 5741 5741 5741 5741 5740 5740 5739 5738 5737 5737 5736 5735 5734 5732 5731 5729 5727 5726 5724 5722 5719 5717 5714 5711 5708
5703 5707 5710 5713 5716 5718 5721 5723 5725 5726 5728 5729 5730 5731 5732 5732 5733 5733 5733 5733 5733 5733 5732 5732 5731 5730 5729 5728 5727 5726 5725 5724 5722 5720 5718 5716 5714 5712 5709 5707 5704 5701 5698
5695 5698 5701 5704 5707 5710 5712 5714 5716 5718 5720 5721 5722 5723 5724 5724 5725 5725 5725 5725 5725 5724 5724 5723 5722 5721 5721 5720 5719 5717 5716 5714 5712 5710 5708 5706 5704 5702 5699 5697 5694 5691 5688
5686 5689 5692 5695 5698 5701 5703 5705 5708 5710 5711 5712 5713 5714 5715 5716 5716 5716 5716 5716 5716 5715 5715 5714 5713 5712 5711 5710 5709 5708 5706 5705 5703 5701 5698 5696 5694 5692 5689 5686 5683 5680 5677
5677 5680 5683 5686 5689 5691 5694 5696 5699 5700 5702 5703 5704 5705 5706 5706 5707 5707 5707 5706 5706 5706 5705 5704 5703 5702 5701 5700 5699 5697 5696 5694 5692 5690 5688 5686 5684 5681 5678 5675 5672 5669 5666